Regional Weather Roundup
Issued by NWS

Home | Current Version | Previous Version | Graphics & Text | Print | Product List | Glossary Off
Versions: 1 2 3 4 5 6 7 8 9 10 11 12 13 14 15 16 17 18 19 20 21 22 23 24 25 26 27 28 29 30 31 32 33 34 35 36 37 38 39 40 41 42 43 44 45 46 47 48 49 50

000
ASUS43 KTOP 200259
RWRKS

WEATHER ROUNDUP FOR KANSAS
NATIONAL WEATHER SERVICE GOODLAND KS
900 PM CST THU JAN 19 2017

NOTE:  "FAIR" INDICATES FEW OR NO CLOUDS BELOW 12,000 FEET WITH NO
SIGNIFICANT WEATHER AND/OR OBSTRUCTIONS TO VISIBILITY.

KSZ001>006-013>018-027>032-041>047-200400-
NORTHWEST KANSAS

CITY           SKY/WX    TMP DP  RH WIND       PRES   REMARKS
GOODLAND       FOG       34  34 100 S10       29.55R VSB 1/2 WCI  26
HAYS           FOG       42  42 100 E7        29.58S VSB 1/2
HILL CITY      FOG       41  41 100 SE7       29.58R VSB 1/4
RUSSELL        FOG       43  43 100 E8        29.57S VSB 1/4
$$

KSZ061>065-074>080-084>089-200400-
SOUTHWEST KANSAS

CITY           SKY/WX    TMP DP  RH WIND       PRES   REMARKS
DODGE CITY     CLOUDY    42  37  82 W3        29.58R
ELKHART          N/A     32  26  78 E7          N/A
GARDEN CITY    CLOUDY    40  36  86 SW3       29.57F
GREAT BEND     CLOUDY    43  43 100 E6        29.58S FOG
LIBERAL        CLOUDY    37  34  87 CALM      29.56F
$$

KSZ066>073-081>083-090>101-200400-
SOUTHEAST KANSAS

CITY           SKY/WX    TMP DP  RH WIND       PRES   REMARKS
CHANUTE        CLOUDY    48  45  89 E3        29.62S
COFFEYVILLE    CLEAR     47  45  93 SE3       29.62S
HUTCHINSON     CLOUDY    45  44  97 E6        29.59S FOG
MEDICINE LODGE   N/A     38  36  92 N3        29.57F
PARSONS        PTCLDY    47  44  90 NE3       29.62S
WICHITA INTL   MOCLDY    46  44  93 E8        29.59S
WICHITA JABRA  CLOUDY    45  45 100 E5        29.60S
WICHITA MCCONL CLOUDY    46  45  93 SE6       29.59S
WINFIELD       MOCLDY    47  45  93 E6        29.60S
$$

KSZ007>012-019>026-033>040-048>060-102>105-200400-
NORTHEAST KANSAS

CITY           SKY/WX    TMP DP  RH WIND       PRES   REMARKS
CONCORDIA      FOG       42  42 100 E5        29.61F VSB 1/4
EMPORIA        FOG       45  44  97 E6        29.61F VSB 3/4
LAWRENCE       CLOUDY    45  45 100 CALM      29.64S FOG
MANHATTAN      FOG       45  44  97 CALM      29.62F VSB 1/2
OLATHE IND     CLOUDY    47  45  93 CALM      29.64S
OLATHE EXE     CLOUDY    45  45 100 E3        29.63S FOG
SALINA         CLOUDY    45  43  93 SE3       29.61F FOG
TOPEKA BILLARD LGT RAIN  45  43  93 CALM      29.64R FOG
TOPEKA FORBES  CLOUDY    47  45  93 E3        29.63S FOG
$$




USA.gov is the U.S. government's official web portal to all federal, state and local government web resources and services.